Regional Weather Roundup
Issued by NWS

Home | Current Version | Previous Version | Text Only | Print | Product List | Glossary Off
Versions: 1 2 3 4 5 6 7 8 9 10 11 12 13 14 15 16 17 18 19 20 21 22 23 24 25 26 27 28 29 30 31 32 33 34 35 36 37 38 39 40 41 42 43 44 45 46 47 48 49 50

000
ASUS43 KLOT 230206
RWRIL

ILLINOIS REGIONAL WEATHER ROUNDUP
NATIONAL WEATHER SERVICE CHICAGO/ROMEOVILLE IL
900 PM CDT TUE APR 22 2014

NOTE: "FAIR" INDICATES FEW OR NO CLOUDS BELOW 12,000 FEET WITH NO
SIGNIFICANT WEATHER AND/OR OBSTRUCTIONS TO VISIBILITY.

* THESE STATIONS ARE NOT UNDER NWS QUALITY CONTROL. THEY ALSO MAY NOT
  REPORT WEATHER SUCH AS PRECIPITATION OR FOG.

ILZ001-002-007-009-015-016-024-230300-
NORTHWEST ILLINOIS

CITY           SKY/WX    TMP DP  RH WIND       PRES   REMARKS
MOLINE         CLEAR     55  25  31 N5        30.02R
STERLING*      CLEAR     52  30  43 N6        30.02R
SAVANNA*       CLEAR     52  25  35 N6        30.03R
$$

ILZ003-004-008-010-011-017-018-230300-
NORTH CENTRAL ILLINOIS

CITY           SKY/WX    TMP DP  RH WIND       PRES   REMARKS
ROCKFORD       PTCLDY    50  25  37 NE7       30.05R
FREEPORT*      CLEAR     48  25  41 N3        30.05R
ROCHELLE*      CLEAR     46  29  51 NE7       30.03R
DE KALB*       CLEAR     43  31  62 E14       30.04R
PERU*          CLEAR     52  31  44 CALM      30.01R
$$

ILZ005-006-012>014-019>023-230300-
NORTHEAST ILLINOIS

CITY           SKY/WX    TMP DP  RH WIND       PRES   REMARKS
CHICAGO-OHARE  PTCLDY    43  25  49 NE10      30.06R
CHICAGO-MIDWAY PTCLDY    44  28  53 NE8       30.06R
AURORA         CLEAR     44  30  57 E14       30.04R
LANSING*       CLEAR     41  28  59 NE10G17   30.06R
JOLIET*        CLEAR     42  29  61 NE10      30.06R
WAUKEGAN       CLEAR     36  27  69 NE3       30.05R
DUPAGE AIRPORT CLEAR     43  28  55 E12       30.05R
KANKAKEE*      CLEAR     43  33  67 NE10G18   30.04R
WHEELING       CLEAR     42  28  57 NE6       30.07R
MORRIS*        CLEAR     45  29  54 E12       30.04R
ROMEOVILLE*    CLEAR     41  29  62 E10       30.05R
NORTHERLY ISL    N/A     41  30  65 NE10        N/A
$$

LMZ740>746-230300-
SOUTHERN LAKE MICHIGAN

STATION/POSITION SKY/WX   TEMP    WIND        PRES    VSBY  WAVE
                          AIR SEA DIR/SP/G                  HT/PER
                          (F)     (DEG/KT/KT) (MB)    (MI)  (FT/S)
WAUKEGAN HARBOR            40      40/  7/  9 1019.0S
HARRISON CRIB              41      30/  7/ 10   N/A
BURNHAM HARBOR             42      30/  9/  9   N/A
CALUMET HARBOR             42      30/ 10/ 13 1018.7R
MICHIGAN CITY              40     360/ 11/ 14   N/A
$$

ILZ025>027-034>036-040-047-049-050-058-095>099-230300-
WEST-CENTRAL ILLINOIS

CITY           SKY/WX    TMP DP  RH WIND       PRES   REMARKS
QUINCY         CLEAR     53  31  42 N6        30.02R
GALESBURG*     CLEAR     49  30  48 N6        30.02R
MACOMB*        CLEAR     49  31  49 N8        30.03R
JACKSONVILLE*  CLEAR     54  28  36 N6        30.02R
PITTSFIELD*    CLEAR     56  30  36 NW3       30.02R
$$

ILZ028>032-037-038-041>044-048-051>054-059>061-230300-
CENTRAL ILLINOIS

CITY           SKY/WX    TMP DP  RH WIND       PRES   REMARKS
PONTIAC        CLEAR     48  36  61 E18       30.02R
BLOOMINGTON    CLEAR     52  28  39 N9        30.01R
DECATUR        CLEAR     54  29  38 N8        29.99R
PEORIA         CLEAR     57  26  30 N6        30.01R
LACON*         CLEAR     52  30  42 N6        30.00R
LINCOLN*       CLEAR     55  28  36 CALM      29.99R
SPRINGFIELD    CLEAR     57  26  30 NW3       30.00R
TAYLORVILLE    CLEAR     54  32  43 NW6       30.00R
$$

ILZ033-039-045-046-055>057-062-063-230300-
EAST-CENTRAL ILLINOIS

CITY           SKY/WX    TMP DP  RH WIND       PRES   REMARKS
CHAMPAIGN      CLEAR     50  32  50 N8        29.99R
RANTOUL*       CLEAR     56  30  36 N8        30.00R
MATTOON        CLEAR     52  32  46 N8        29.98R
PARIS*         CLEAR     53  36  51 N3        29.99R
$$

ILZ079-100>102-230300-
SOUTHWEST ILLINOIS

CITY           SKY/WX    TMP DP  RH WIND       PRES   REMARKS
ALTON          CLEAR     54  30  40 CALM      30.00R
BELLEVILLE     CLEAR     57  34  42 CALM      29.99R
CAHOKIA*       CLEAR     56  36  47 N3        30.00R
SPARTA*        CLEAR     59  34  38 CALM      30.00S
$$

ILZ064>066-069>071-074>076-080>082-084>086-088>090-092>094-230300-
SOUTH-CENTRAL ILLINOIS

CITY           SKY/WX    TMP DP  RH WIND       PRES   REMARKS
CARBONDALE     CLEAR     58  38  47 N3        29.99R
CAIRO*         CLEAR     61  39  44 N5        29.98R
MARION         CLEAR     61  39  44 CALM      29.99R
MT. VERNON     CLEAR     52  34  50 CALM      30.00R
CENTRALIA*       N/A     56  34  42 CALM      29.99R
SALEM*         CLEAR     58  37  46 CALM      29.99R
METROPOLIS*    CLEAR     60  36  40 NW3       29.97R
$$

ILZ067-068-072-073-078-083-087-091-230300-
SOUTHEAST ILLINOIS

CITY           SKY/WX    TMP DP  RH WIND       PRES   REMARKS
FAIRFIELD*     CLEAR     59  37  44 CALM      29.99R
HARRISBURG*    CLEAR     57  38  49 NW3       29.99R
ROBINSON*      CLEAR     57  38  48 N6        29.98R
CARMI*         CLEAR     56  43  61 NW6       29.97R
$$

ABBREVIATIONS USED IN REMARKS
   TC - TEMPERATURE IN CELSIUS
  WCI - WIND CHILL INDEX
   HX - HEAT INDEX
  VSB - VISIBILITY
$$




USA.gov is the U.S. government's official web portal to all federal, state and local government web resources and services.